Year,Month,Day,Hour,Minute,Value (Times are PST for temperature in C)
2015,06,28,00,00,24.60
2015,06,28,00,01,24.50
2015,06,28,00,02,24.50
2015,06,28,00,03,24.50
2015,06,28,00,04,24.50
2015,06,28,00,05,24.40
2015,06,28,00,06,24.40
2015,06,28,00,07,24.40
2015,06,28,00,08,24.40
2015,06,28,00,09,24.40
2015,06,28,00,10,24.30
2015,06,28,00,11,24.30
2015,06,28,00,12,24.30
2015,06,28,00,13,24.30
2015,06,28,00,14,24.30
2015,06,28,00,15,24.30
2015,06,28,00,16,24.30
2015,06,28,00,17,24.30
2015,06,28,00,18,24.30
2015,06,28,00,19,24.30
2015,06,28,00,20,24.30
2015,06,28,00,21,24.30
2015,06,28,00,22,24.30
2015,06,28,00,23,24.30
2015,06,28,00,24,24.30
2015,06,28,00,25,24.30
2015,06,28,00,26,24.40
2015,06,28,00,27,24.40
2015,06,28,00,28,24.40
2015,06,28,00,29,24.40
2015,06,28,00,30,24.40
2015,06,28,00,31,24.40
2015,06,28,00,32,24.40
2015,06,28,00,33,24.50
2015,06,28,00,34,24.50
2015,06,28,00,35,24.50
2015,06,28,00,36,24.50
2015,06,28,00,37,24.50
2015,06,28,00,38,24.50
2015,06,28,00,39,24.50
2015,06,28,00,40,24.50
2015,06,28,00,41,24.60
2015,06,28,00,42,24.60
2015,06,28,00,43,24.60
2015,06,28,00,44,24.60
2015,06,28,00,45,24.60
2015,06,28,00,46,24.60
2015,06,28,00,47,24.60
2015,06,28,00,48,24.60
2015,06,28,00,49,24.60
2015,06,28,00,50,24.60
2015,06,28,00,51,24.60
2015,06,28,00,52,24.60
2015,06,28,00,53,24.50
2015,06,28,00,54,24.50
2015,06,28,00,55,24.50
2015,06,28,00,56,24.50
2015,06,28,00,57,24.40
2015,06,28,00,58,24.40
2015,06,28,00,59,24.40
2015,06,28,01,00,24.40
2015,06,28,01,01,24.30
2015,06,28,01,02,24.30
2015,06,28,01,03,24.30
2015,06,28,01,04,24.30
2015,06,28,01,05,24.20
2015,06,28,01,06,24.20
2015,06,28,01,07,24.20
2015,06,28,01,08,24.20
2015,06,28,01,09,24.10
2015,06,28,01,10,24.10
2015,06,28,01,11,24.10
2015,06,28,01,12,24.10
2015,06,28,01,13,24.00
2015,06,28,01,14,24.00
2015,06,28,01,15,24.00
2015,06,28,01,16,23.90
2015,06,28,01,17,23.90
2015,06,28,01,18,23.80
2015,06,28,01,19,23.80
2015,06,28,01,20,23.80
2015,06,28,01,21,23.70
2015,06,28,01,22,23.70
2015,06,28,01,23,23.70
2015,06,28,01,24,23.70
2015,06,28,01,25,23.70
2015,06,28,01,26,23.70
2015,06,28,01,27,23.60
2015,06,28,01,28,23.60
2015,06,28,01,29,23.60
2015,06,28,01,30,23.60
2015,06,28,01,31,23.50
2015,06,28,01,32,23.50
2015,06,28,01,33,23.50
2015,06,28,01,34,23.40
2015,06,28,01,35,23.40
2015,06,28,01,36,23.40
2015,06,28,01,37,23.40
2015,06,28,01,38,23.40
2015,06,28,01,39,23.40
2015,06,28,01,40,23.40
2015,06,28,01,41,23.50
2015,06,28,01,42,23.60
2015,06,28,01,43,23.60
2015,06,28,01,44,23.70
2015,06,28,01,45,23.70
2015,06,28,01,46,23.80
2015,06,28,01,47,23.80
2015,06,28,01,48,23.80
2015,06,28,01,49,23.80
2015,06,28,01,50,23.80
2015,06,28,01,51,23.80
2015,06,28,01,52,23.90
2015,06,28,01,53,23.90
2015,06,28,01,54,23.90
2015,06,28,01,55,23.90
2015,06,28,01,56,23.90
2015,06,28,01,57,23.90
2015,06,28,01,58,23.90
2015,06,28,01,59,24.00
2015,06,28,02,00,23.90
2015,06,28,02,01,24.00
2015,06,28,02,02,24.00
2015,06,28,02,03,24.00
2015,06,28,02,04,24.00
2015,06,28,02,05,24.00
2015,06,28,02,06,24.00
2015,06,28,02,07,24.00
2015,06,28,02,08,23.90
2015,06,28,02,09,23.90
2015,06,28,02,10,23.90
2015,06,28,02,11,23.90
2015,06,28,02,12,23.90
2015,06,28,02,13,23.90
2015,06,28,02,14,23.90
2015,06,28,02,15,23.90
2015,06,28,02,16,23.80
2015,06,28,02,17,23.80
2015,06,28,02,18,23.80
2015,06,28,02,19,23.70
2015,06,28,02,20,23.70
2015,06,28,02,21,23.70
2015,06,28,02,22,23.60
2015,06,28,02,23,23.60
2015,06,28,02,24,23.60
2015,06,28,02,25,23.50
2015,06,28,02,26,23.50
2015,06,28,02,27,23.40
2015,06,28,02,28,23.40
2015,06,28,02,29,23.40
2015,06,28,02,30,23.40
2015,06,28,02,31,23.40
2015,06,28,02,32,23.40
2015,06,28,02,33,23.40
2015,06,28,02,34,23.40
2015,06,28,02,35,23.40
2015,06,28,02,36,23.40
2015,06,28,02,37,23.40
2015,06,28,02,38,23.40
2015,06,28,02,39,23.40
2015,06,28,02,40,23.40
2015,06,28,02,41,23.40
2015,06,28,02,42,23.30
2015,06,28,02,43,23.30
2015,06,28,02,44,23.30
2015,06,28,02,45,23.30
2015,06,28,02,46,23.30
2015,06,28,02,47,23.30
2015,06,28,02,48,23.20
2015,06,28,02,49,23.20
2015,06,28,02,50,23.20
2015,06,28,02,51,23.10
2015,06,28,02,52,23.10
2015,06,28,02,53,23.10
2015,06,28,02,54,23.10
2015,06,28,02,55,23.10
2015,06,28,02,56,23.10
2015,06,28,02,57,23.20
2015,06,28,02,58,23.20
2015,06,28,02,59,23.20
2015,06,28,03,00,23.20
2015,06,28,03,01,23.20
2015,06,28,03,02,23.20
2015,06,28,03,03,23.20
2015,06,28,03,04,23.20
2015,06,28,03,05,23.20
2015,06,28,03,06,23.20
2015,06,28,03,07,23.20
2015,06,28,03,08,23.20
2015,06,28,03,09,23.20
2015,06,28,03,10,23.20
2015,06,28,03,11,23.20
2015,06,28,03,12,23.20
2015,06,28,03,13,23.10
2015,06,28,03,14,23.10
2015,06,28,03,15,23.10
2015,06,28,03,16,23.00
2015,06,28,03,17,23.00
2015,06,28,03,18,22.90
2015,06,28,03,19,22.90
2015,06,28,03,20,22.80
2015,06,28,03,21,22.80
2015,06,28,03,22,22.80
2015,06,28,03,23,22.70
2015,06,28,03,24,22.70
2015,06,28,03,25,22.70
2015,06,28,03,26,22.70
2015,06,28,03,27,22.70
2015,06,28,03,28,22.60
2015,06,28,03,29,22.60
2015,06,28,03,30,22.50
2015,06,28,03,31,22.50
2015,06,28,03,32,22.50
2015,06,28,03,33,22.40
2015,06,28,03,34,22.40
2015,06,28,03,35,22.40
2015,06,28,03,36,22.30
2015,06,28,03,37,22.30
2015,06,28,03,38,22.20
2015,06,28,03,39,22.20
2015,06,28,03,40,22.10
2015,06,28,03,41,22.10
2015,06,28,03,42,22.00
2015,06,28,03,43,21.90
2015,06,28,03,44,21.80
2015,06,28,03,45,21.80
2015,06,28,03,46,21.80
2015,06,28,03,47,21.80
2015,06,28,03,48,21.70
2015,06,28,03,49,21.70
2015,06,28,03,50,21.70
2015,06,28,03,51,21.70
2015,06,28,03,52,21.70
2015,06,28,03,53,21.70
2015,06,28,03,54,21.80
2015,06,28,03,55,21.80
2015,06,28,03,56,21.70
2015,06,28,03,57,21.70
2015,06,28,03,58,21.70
2015,06,28,03,59,21.70
2015,06,28,04,00,21.60
2015,06,28,04,01,21.60
2015,06,28,04,02,21.50
2015,06,28,04,03,21.50
2015,06,28,04,04,21.40
2015,06,28,04,05,21.30
2015,06,28,04,06,21.20
2015,06,28,04,07,21.20
2015,06,28,04,08,21.10
2015,06,28,04,09,21.10
2015,06,28,04,10,21.10
2015,06,28,04,11,21.20
2015,06,28,04,12,21.20
2015,06,28,04,13,21.30
2015,06,28,04,14,21.40
2015,06,28,04,15,21.50
2015,06,28,04,16,21.60
2015,06,28,04,17,21.60
2015,06,28,04,18,21.60
2015,06,28,04,19,21.70
2015,06,28,04,20,21.70
2015,06,28,04,21,21.70
2015,06,28,04,22,21.60
2015,06,28,04,23,21.60
2015,06,28,04,24,21.60
2015,06,28,04,25,21.60
2015,06,28,04,26,21.60
2015,06,28,04,27,21.60
2015,06,28,04,28,21.50
2015,06,28,04,29,21.50
2015,06,28,04,30,21.50
2015,06,28,04,31,21.40
2015,06,28,04,32,21.40
2015,06,28,04,33,21.40
2015,06,28,04,34,21.40
2015,06,28,04,35,21.40
2015,06,28,04,36,21.30
2015,06,28,04,37,21.30
2015,06,28,04,38,21.30
2015,06,28,04,39,21.30
2015,06,28,04,40,21.30
2015,06,28,04,41,21.30
2015,06,28,04,42,21.30
2015,06,28,04,43,21.30
2015,06,28,04,44,21.30
2015,06,28,04,45,21.30
2015,06,28,04,46,21.30
2015,06,28,04,47,21.30
2015,06,28,04,48,21.30
2015,06,28,04,49,21.30
2015,06,28,04,50,21.20
2015,06,28,04,51,21.20
2015,06,28,04,52,21.20
2015,06,28,04,53,21.10
2015,06,28,04,54,21.10
2015,06,28,04,55,21.00
2015,06,28,04,56,21.00
2015,06,28,04,57,20.90
2015,06,28,04,58,20.80
2015,06,28,04,59,20.70
2015,06,28,05,00,20.70
2015,06,28,05,01,20.60
2015,06,28,05,02,20.60
2015,06,28,05,03,20.60
2015,06,28,05,04,20.60
2015,06,28,05,05,20.60
2015,06,28,05,06,20.60
2015,06,28,05,07,20.60
2015,06,28,05,08,20.70
2015,06,28,05,09,20.70
2015,06,28,05,10,20.70
2015,06,28,05,11,20.70
2015,06,28,05,12,20.70
2015,06,28,05,13,20.60
2015,06,28,05,14,20.60
2015,06,28,05,15,20.50
2015,06,28,05,16,20.50
2015,06,28,05,17,20.40
2015,06,28,05,18,20.30
2015,06,28,05,19,20.30
2015,06,28,05,20,20.30
2015,06,28,05,21,20.20
2015,06,28,05,22,20.20
2015,06,28,05,23,20.10
2015,06,28,05,24,20.20
2015,06,28,05,25,20.20
2015,06,28,05,26,20.20
2015,06,28,05,27,20.20
2015,06,28,05,28,20.20
2015,06,28,05,29,20.20
2015,06,28,05,30,20.20
2015,06,28,05,31,20.30
2015,06,28,05,32,20.30
2015,06,28,05,33,20.30
2015,06,28,05,34,20.30
2015,06,28,05,35,20.40
2015,06,28,05,36,20.40
2015,06,28,05,37,20.50
2015,06,28,05,38,20.50
2015,06,28,05,39,20.60
2015,06,28,05,40,20.60
2015,06,28,05,41,20.60
2015,06,28,05,42,20.60
2015,06,28,05,43,20.60
2015,06,28,05,44,20.60
2015,06,28,05,45,20.60
2015,06,28,05,46,20.60
2015,06,28,05,47,20.60
2015,06,28,05,48,20.50
2015,06,28,05,49,20.50
2015,06,28,05,50,20.50
2015,06,28,05,51,20.50
2015,06,28,05,52,20.40
2015,06,28,05,53,20.40
2015,06,28,05,54,20.40
2015,06,28,05,55,20.40
2015,06,28,05,56,20.40
2015,06,28,05,57,20.30
2015,06,28,05,58,20.30
2015,06,28,05,59,20.30
2015,06,28,06,00,20.30
2015,06,28,06,01,20.30
2015,06,28,06,02,20.30
2015,06,28,06,03,20.30
2015,06,28,06,04,20.30
2015,06,28,06,05,20.30
2015,06,28,06,06,20.30
2015,06,28,06,07,20.30
2015,06,28,06,08,20.30
2015,06,28,06,09,20.30
2015,06,28,06,10,20.30
2015,06,28,06,11,20.30
2015,06,28,06,12,20.30
2015,06,28,06,13,20.30
2015,06,28,06,14,20.30
2015,06,28,06,15,20.30
2015,06,28,06,16,20.30
2015,06,28,06,17,20.40
2015,06,28,06,18,20.40
2015,06,28,06,19,20.50
2015,06,28,06,20,20.50
2015,06,28,06,21,20.60
2015,06,28,06,22,20.60
2015,06,28,06,23,20.70
2015,06,28,06,24,20.80
2015,06,28,06,25,20.80
2015,06,28,06,26,20.90
2015,06,28,06,27,21.00
2015,06,28,06,28,21.00
2015,06,28,06,29,21.10
2015,06,28,06,30,21.10
2015,06,28,06,31,21.20
2015,06,28,06,32,21.20
2015,06,28,06,33,21.20
2015,06,28,06,34,21.20
2015,06,28,06,35,21.30
2015,06,28,06,36,21.30
2015,06,28,06,37,21.30
2015,06,28,06,38,21.30
2015,06,28,06,39,21.30
2015,06,28,06,40,21.30
2015,06,28,06,41,21.30
2015,06,28,06,42,21.30
2015,06,28,06,43,21.30
2015,06,28,06,44,21.30
2015,06,28,06,45,21.30
2015,06,28,06,46,21.30
2015,06,28,06,47,21.30
2015,06,28,06,48,21.30
2015,06,28,06,49,21.30
2015,06,28,06,50,21.40
2015,06,28,06,51,21.40
2015,06,28,06,52,21.40
2015,06,28,06,53,21.40
2015,06,28,06,54,21.40
2015,06,28,06,55,21.40
2015,06,28,06,56,21.40
2015,06,28,06,57,21.50
2015,06,28,06,58,21.50
2015,06,28,06,59,21.60
2015,06,28,07,00,21.60
2015,06,28,07,01,21.60
2015,06,28,07,02,21.60
2015,06,28,07,03,21.70
2015,06,28,07,04,21.70
2015,06,28,07,05,21.70
2015,06,28,07,06,21.70
2015,06,28,07,07,21.70
2015,06,28,07,08,21.70
2015,06,28,07,09,21.80
2015,06,28,07,10,21.80
2015,06,28,07,11,21.80
2015,06,28,07,12,21.80
2015,06,28,07,13,21.90
2015,06,28,07,14,21.90
2015,06,28,07,15,21.90
2015,06,28,07,16,21.90
2015,06,28,07,17,22.00
2015,06,28,07,18,22.00
2015,06,28,07,19,22.00
2015,06,28,07,20,22.00
2015,06,28,07,21,22.10
2015,06,28,07,22,22.10
2015,06,28,07,23,22.10
2015,06,28,07,24,22.20
2015,06,28,07,25,22.20
2015,06,28,07,26,22.20
2015,06,28,07,27,22.30
2015,06,28,07,28,22.30
2015,06,28,07,29,22.40
2015,06,28,07,30,22.40
2015,06,28,07,31,22.50
2015,06,28,07,32,22.60
2015,06,28,07,33,22.70
2015,06,28,07,34,22.80
2015,06,28,07,35,22.80
2015,06,28,07,36,22.90
2015,06,28,07,37,23.00
2015,06,28,07,38,23.10
2015,06,28,07,39,23.10
2015,06,28,07,40,23.20
2015,06,28,07,41,23.20
2015,06,28,07,42,23.30
2015,06,28,07,43,23.40
2015,06,28,07,44,23.40
2015,06,28,07,45,23.50
2015,06,28,07,46,23.50
2015,06,28,07,47,23.60
2015,06,28,07,48,23.60
2015,06,28,07,49,23.70
2015,06,28,07,50,23.70
2015,06,28,07,51,23.70
2015,06,28,07,52,23.80
2015,06,28,07,53,23.80
2015,06,28,07,54,23.80
2015,06,28,07,55,23.80
2015,06,28,07,56,23.80
2015,06,28,07,57,23.80
2015,06,28,07,58,23.80
2015,06,28,07,59,23.80
2015,06,28,08,00,23.80
2015,06,28,08,01,23.80
2015,06,28,08,02,23.80
2015,06,28,08,03,23.80
2015,06,28,08,04,23.80
2015,06,28,08,05,23.80
2015,06,28,08,06,23.70
2015,06,28,08,07,23.70
2015,06,28,08,08,23.60
2015,06,28,08,09,23.60
2015,06,28,08,10,23.60
2015,06,28,08,11,23.60
2015,06,28,08,12,23.60
2015,06,28,08,13,23.60
2015,06,28,08,14,23.60
2015,06,28,08,15,23.60
2015,06,28,08,16,23.60
2015,06,28,08,17,23.60
2015,06,28,08,18,23.60
2015,06,28,08,19,23.60
2015,06,28,08,20,23.60
2015,06,28,08,21,23.70
2015,06,28,08,22,23.70
2015,06,28,08,23,23.70
2015,06,28,08,24,23.80
2015,06,28,08,25,23.80
2015,06,28,08,26,23.90
2015,06,28,08,27,23.90
2015,06,28,08,28,24.10
2015,06,28,08,29,24.10
2015,06,28,08,30,24.20
2015,06,28,08,31,24.30
2015,06,28,08,32,24.40
2015,06,28,08,33,24.40
2015,06,28,08,34,24.40
2015,06,28,08,35,24.50
2015,06,28,08,36,24.60
2015,06,28,08,37,24.60
2015,06,28,08,38,24.70
2015,06,28,08,39,24.80
2015,06,28,08,40,24.80
2015,06,28,08,41,24.90
2015,06,28,08,42,25.00
2015,06,28,08,43,25.00
2015,06,28,08,44,25.10
2015,06,28,08,45,25.10
2015,06,28,08,46,25.20
2015,06,28,08,47,25.30
2015,06,28,08,48,25.30
2015,06,28,08,49,25.40
2015,06,28,08,50,25.50
2015,06,28,08,51,25.50
2015,06,28,08,52,25.50
2015,06,28,08,53,25.40
2015,06,28,08,54,25.40
2015,06,28,08,55,25.30
2015,06,28,08,56,25.30
2015,06,28,08,57,25.20
2015,06,28,08,58,25.20
2015,06,28,08,59,25.20
2015,06,28,09,00,25.30
2015,06,28,09,01,25.30
2015,06,28,09,02,25.30
2015,06,28,09,03,25.30
2015,06,28,09,04,25.30
2015,06,28,09,05,25.30
2015,06,28,09,06,25.30
2015,06,28,09,07,25.30
2015,06,28,09,08,25.30
2015,06,28,09,09,25.30
2015,06,28,09,10,25.30
2015,06,28,09,11,25.30
2015,06,28,09,12,25.30
2015,06,28,09,13,25.30
2015,06,28,09,14,25.30
2015,06,28,09,15,25.30
2015,06,28,09,16,25.20
2015,06,28,09,17,25.30
2015,06,28,09,18,25.30
2015,06,28,09,19,25.30
2015,06,28,09,20,25.30
2015,06,28,09,21,25.40
2015,06,28,09,22,25.40
2015,06,28,09,23,25.40
2015,06,28,09,24,25.50
2015,06,28,09,25,25.50
2015,06,28,09,26,25.50
2015,06,28,09,27,25.60
2015,06,28,09,28,25.60
2015,06,28,09,29,25.60
2015,06,28,09,30,25.60
2015,06,28,09,31,25.70
2015,06,28,09,32,25.70
2015,06,28,09,33,25.80
2015,06,28,09,34,25.90
2015,06,28,09,35,25.90
2015,06,28,09,36,25.90
2015,06,28,09,37,25.90
2015,06,28,09,38,26.00
2015,06,28,09,39,26.00
2015,06,28,09,40,26.00
2015,06,28,09,41,26.00
2015,06,28,09,42,26.00
2015,06,28,09,43,25.90
2015,06,28,09,44,25.90
2015,06,28,09,45,25.90
2015,06,28,09,46,25.90
2015,06,28,09,47,25.90
2015,06,28,09,48,25.90
2015,06,28,09,49,25.90
2015,06,28,09,50,25.90
2015,06,28,09,51,25.80
2015,06,28,09,52,25.80
2015,06,28,09,53,25.80
2015,06,28,09,54,25.80
2015,06,28,09,55,25.80
2015,06,28,09,56,25.90
2015,06,28,09,57,25.90
2015,06,28,09,58,26.00
2015,06,28,09,59,26.00
2015,06,28,10,00,26.10
2015,06,28,10,01,26.10
2015,06,28,10,02,26.20
2015,06,28,10,03,26.30
2015,06,28,10,04,26.30
2015,06,28,10,05,26.30
2015,06,28,10,06,26.30
2015,06,28,10,07,26.30
2015,06,28,10,08,26.20
2015,06,28,10,09,26.20
2015,06,28,10,10,26.10
2015,06,28,10,11,26.10
2015,06,28,10,12,26.10
2015,06,28,10,13,26.00
2015,06,28,10,14,26.00
2015,06,28,10,15,26.00
2015,06,28,10,16,26.00
2015,06,28,10,17,26.00
2015,06,28,10,18,25.90
2015,06,28,10,19,25.90
2015,06,28,10,20,26.00
2015,06,28,10,21,26.00
2015,06,28,10,22,26.00
2015,06,28,10,23,26.00
2015,06,28,10,24,25.90
2015,06,28,10,25,25.90
2015,06,28,10,26,25.90
2015,06,28,10,27,25.90
2015,06,28,10,28,25.90
2015,06,28,10,29,25.90
2015,06,28,10,30,25.90
2015,06,28,10,31,25.90
2015,06,28,10,32,25.90
2015,06,28,10,33,25.90
2015,06,28,10,34,25.90
2015,06,28,10,35,25.90
2015,06,28,10,36,25.90
2015,06,28,10,37,25.90
2015,06,28,10,38,25.90
2015,06,28,10,39,25.90
2015,06,28,10,40,25.90
2015,06,28,10,41,25.90
2015,06,28,10,42,25.90
2015,06,28,10,43,25.90
2015,06,28,10,44,25.90
2015,06,28,10,45,25.90
2015,06,28,10,46,25.90
2015,06,28,10,47,25.80
2015,06,28,10,48,25.80
2015,06,28,10,49,25.80
2015,06,28,10,50,25.90
2015,06,28,10,51,25.90
2015,06,28,10,52,25.90
2015,06,28,10,53,25.90
2015,06,28,10,54,25.90
2015,06,28,10,55,25.90
2015,06,28,10,56,25.90
2015,06,28,10,57,25.90
2015,06,28,10,58,26.00
2015,06,28,10,59,26.10
2015,06,28,11,00,26.10
2015,06,28,11,01,26.20
2015,06,28,11,02,26.20
2015,06,28,11,03,26.20
2015,06,28,11,04,26.20
2015,06,28,11,05,26.20
2015,06,28,11,06,26.30
2015,06,28,11,07,26.30
2015,06,28,11,08,26.30
2015,06,28,11,09,26.30
2015,06,28,11,10,26.30
2015,06,28,11,11,26.30
2015,06,28,11,12,26.40
2015,06,28,11,13,26.50
2015,06,28,11,14,26.50
2015,06,28,11,15,26.60
2015,06,28,11,16,26.60
2015,06,28,11,17,26.60
2015,06,28,11,18,26.60
2015,06,28,11,19,26.60
2015,06,28,11,20,26.60
2015,06,28,11,21,26.60
2015,06,28,11,22,26.70
2015,06,28,11,23,26.70
2015,06,28,11,24,26.70
2015,06,28,11,25,26.70
2015,06,28,11,26,26.80
2015,06,28,11,27,26.90
2015,06,28,11,28,27.00
2015,06,28,11,29,27.20
2015,06,28,11,30,27.30
2015,06,28,11,31,27.50
2015,06,28,11,32,27.70
2015,06,28,11,33,27.80
2015,06,28,11,34,27.90
2015,06,28,11,35,28.00
2015,06,28,11,36,28.10
2015,06,28,11,37,28.10
2015,06,28,11,38,28.10
2015,06,28,11,39,28.10
2015,06,28,11,40,28.10
2015,06,28,11,41,28.10
2015,06,28,11,42,28.10
2015,06,28,11,43,28.10
2015,06,28,11,44,28.10
2015,06,28,11,45,28.10
2015,06,28,11,46,28.10
2015,06,28,11,47,28.10
2015,06,28,11,48,28.10
2015,06,28,11,49,28.10
2015,06,28,11,50,28.10
2015,06,28,11,51,28.10
2015,06,28,11,52,28.10
2015,06,28,11,53,28.10
2015,06,28,11,54,28.10
2015,06,28,11,55,28.20
2015,06,28,11,56,28.20
2015,06,28,11,57,28.20
2015,06,28,11,58,28.10
2015,06,28,11,59,28.10
2015,06,28,12,00,28.10
2015,06,28,12,01,28.20
2015,06,28,12,02,28.20
2015,06,28,12,03,28.20
2015,06,28,12,04,28.20
2015,06,28,12,05,28.20
2015,06,28,12,06,28.20
2015,06,28,12,07,28.20
2015,06,28,12,08,28.20
2015,06,28,12,09,28.20
2015,06,28,12,10,28.20
2015,06,28,12,11,28.20
2015,06,28,12,12,28.20
2015,06,28,12,13,28.20
2015,06,28,12,14,28.10
2015,06,28,12,15,28.10
2015,06,28,12,16,28.10
2015,06,28,12,17,28.10
2015,06,28,12,18,28.00
2015,06,28,12,19,27.90
2015,06,28,12,20,27.90
2015,06,28,12,21,27.80
2015,06,28,12,22,27.80
2015,06,28,12,23,27.90
2015,06,28,12,24,27.90
2015,06,28,12,25,27.80
2015,06,28,12,26,27.80
2015,06,28,12,27,27.80
2015,06,28,12,28,27.70
2015,06,28,12,29,27.80
2015,06,28,12,30,27.80
2015,06,28,12,31,27.90
2015,06,28,12,32,27.90
2015,06,28,12,33,27.90
2015,06,28,12,34,27.90
2015,06,28,12,35,27.80
2015,06,28,12,36,27.80
2015,06,28,12,37,27.80
2015,06,28,12,38,27.80
2015,06,28,12,39,27.80
2015,06,28,12,40,27.80
2015,06,28,12,41,27.80
2015,06,28,12,42,27.70
2015,06,28,12,43,27.70
2015,06,28,12,44,27.70
2015,06,28,12,45,27.70
2015,06,28,12,46,27.70
2015,06,28,12,47,27.70
2015,06,28,12,48,27.70
2015,06,28,12,49,27.80
2015,06,28,12,50,27.80
2015,06,28,12,51,27.90
2015,06,28,12,52,28.10
2015,06,28,12,53,28.20
2015,06,28,12,54,28.30
2015,06,28,12,55,28.40
2015,06,28,12,56,28.40
2015,06,28,12,57,28.40
2015,06,28,12,58,28.40
2015,06,28,12,59,28.50
2015,06,28,13,00,28.50
2015,06,28,13,01,28.50
2015,06,28,13,02,28.50
2015,06,28,13,03,28.40
2015,06,28,13,04,28.40
2015,06,28,13,05,28.40
2015,06,28,13,06,28.50
2015,06,28,13,07,28.60
2015,06,28,13,08,28.60
2015,06,28,13,09,28.70
2015,06,28,13,10,28.70
2015,06,28,13,11,28.70
2015,06,28,13,12,28.80
2015,06,28,13,13,28.90
2015,06,28,13,14,29.00
2015,06,28,13,15,29.00
2015,06,28,13,16,29.10
2015,06,28,13,17,29.10
2015,06,28,13,18,29.10
2015,06,28,13,19,29.10
2015,06,28,13,20,29.10
2015,06,28,13,21,29.10
2015,06,28,13,22,29.10
2015,06,28,13,23,29.10
2015,06,28,13,24,29.10
2015,06,28,13,25,29.10
2015,06,28,13,26,29.20
2015,06,28,13,27,29.20
2015,06,28,13,28,29.20
2015,06,28,13,29,29.20
2015,06,28,13,30,29.20
2015,06,28,13,31,29.20
2015,06,28,13,32,29.20
2015,06,28,13,33,29.20
2015,06,28,13,34,29.10
2015,06,28,13,35,29.10
2015,06,28,13,36,29.10
2015,06,28,13,37,29.00
2015,06,28,13,38,29.00
2015,06,28,13,39,28.90
2015,06,28,13,40,28.90
2015,06,28,13,41,28.90
2015,06,28,13,42,28.80
2015,06,28,13,43,28.80
2015,06,28,13,44,28.80
2015,06,28,13,45,28.80
2015,06,28,13,46,28.90
2015,06,28,13,47,28.90
2015,06,28,13,48,29.00
2015,06,28,13,49,29.00
2015,06,28,13,50,29.00
2015,06,28,13,51,29.10
2015,06,28,13,52,29.20
2015,06,28,13,53,29.30
2015,06,28,13,54,29.30
2015,06,28,13,55,29.30
2015,06,28,13,56,29.30
2015,06,28,13,57,29.30
2015,06,28,13,58,29.30
2015,06,28,13,59,29.30
2015,06,28,14,00,29.20
2015,06,28,14,01,29.20
2015,06,28,14,02,29.10
2015,06,28,14,03,29.10
2015,06,28,14,04,29.10
2015,06,28,14,05,29.10
2015,06,28,14,06,29.10
2015,06,28,14,07,29.20
2015,06,28,14,08,29.20
2015,06,28,14,09,29.30
2015,06,28,14,10,29.30
2015,06,28,14,11,29.40
2015,06,28,14,12,29.40
2015,06,28,14,13,29.50
2015,06,28,14,14,29.60
2015,06,28,14,15,29.60
2015,06,28,14,16,29.70
2015,06,28,14,17,29.70
2015,06,28,14,18,29.70
2015,06,28,14,19,29.80
2015,06,28,14,20,29.90
2015,06,28,14,21,29.90
2015,06,28,14,22,30.00
2015,06,28,14,23,30.10
2015,06,28,14,24,30.20
2015,06,28,14,25,30.30
2015,06,28,14,26,30.30
2015,06,28,14,27,30.30
2015,06,28,14,28,30.40
2015,06,28,14,29,30.50
2015,06,28,14,30,30.50
2015,06,28,14,31,30.60
2015,06,28,14,32,30.60
2015,06,28,14,33,30.70
2015,06,28,14,34,30.70
2015,06,28,14,35,30.70
2015,06,28,14,36,30.70
2015,06,28,14,37,30.60
2015,06,28,14,38,30.60
2015,06,28,14,39,30.60
2015,06,28,14,40,30.50
2015,06,28,14,41,30.40
2015,06,28,14,42,30.40
2015,06,28,14,43,30.40
2015,06,28,14,44,30.40
2015,06,28,14,45,30.40
2015,06,28,14,46,30.40
2015,06,28,14,47,30.40
2015,06,28,14,48,30.50
2015,06,28,14,49,30.50
2015,06,28,14,50,30.60
2015,06,28,14,51,30.60
2015,06,28,14,52,30.70
2015,06,28,14,53,30.80
2015,06,28,14,54,30.80
2015,06,28,14,55,30.90
2015,06,28,14,56,30.90
2015,06,28,14,57,31.00
2015,06,28,14,58,31.10
2015,06,28,14,59,31.20
2015,06,28,15,00,31.30
2015,06,28,15,01,31.40
2015,06,28,15,02,31.30
2015,06,28,15,03,31.20
2015,06,28,15,04,31.10
2015,06,28,15,05,31.00
2015,06,28,15,06,30.90
2015,06,28,15,07,30.90
2015,06,28,15,08,31.00
2015,06,28,15,09,31.00
2015,06,28,15,10,31.10
2015,06,28,15,11,31.10
2015,06,28,15,12,31.10
2015,06,28,15,13,31.20
2015,06,28,15,14,31.20
2015,06,28,15,15,31.30
2015,06,28,15,16,31.30
2015,06,28,15,17,31.20
2015,06,28,15,18,31.20
2015,06,28,15,19,31.10
2015,06,28,15,20,31.10
2015,06,28,15,21,31.10
2015,06,28,15,22,31.10
2015,06,28,15,23,31.20
2015,06,28,15,24,31.20
2015,06,28,15,25,31.40
2015,06,28,15,26,31.50
2015,06,28,15,27,31.60
2015,06,28,15,28,31.60
2015,06,28,15,29,31.50
2015,06,28,15,30,31.20
2015,06,28,15,31,31.00
2015,06,28,15,32,30.70
2015,06,28,15,33,30.60
2015,06,28,15,34,30.50
2015,06,28,15,35,30.40
2015,06,28,15,36,30.30
2015,06,28,15,37,30.30
2015,06,28,15,38,30.30
2015,06,28,15,39,30.30
2015,06,28,15,40,30.30
2015,06,28,15,41,30.30
2015,06,28,15,42,30.30
2015,06,28,15,43,30.30
2015,06,28,15,44,30.30
2015,06,28,15,45,30.30
2015,06,28,15,46,30.30
2015,06,28,15,47,30.30
2015,06,28,15,48,30.30
2015,06,28,15,49,30.40
2015,06,28,15,50,30.40
2015,06,28,15,51,30.40
2015,06,28,15,52,30.40
2015,06,28,15,53,30.50
2015,06,28,15,54,30.50
2015,06,28,15,55,30.60
2015,06,28,15,56,30.60
2015,06,28,15,57,30.60
2015,06,28,15,58,30.60
2015,06,28,15,59,30.60
2015,06,28,16,00,30.60
2015,06,28,16,01,30.60
2015,06,28,16,02,30.50
2015,06,28,16,03,30.40
2015,06,28,16,04,30.30
2015,06,28,16,05,30.20
2015,06,28,16,06,30.10
2015,06,28,16,07,30.00
2015,06,28,16,08,29.90
2015,06,28,16,09,29.80
2015,06,28,16,10,29.60
2015,06,28,16,11,29.50
2015,06,28,16,12,29.40
2015,06,28,16,13,29.20
2015,06,28,16,14,29.10
2015,06,28,16,15,28.90
2015,06,28,16,16,28.80
2015,06,28,16,17,28.60
2015,06,28,16,18,28.40
2015,06,28,16,19,28.20
2015,06,28,16,20,27.90
2015,06,28,16,21,27.60
2015,06,28,16,22,27.40
2015,06,28,16,23,27.20
2015,06,28,16,24,26.90
2015,06,28,16,25,26.70
2015,06,28,16,26,26.60
2015,06,28,16,27,26.40
2015,06,28,16,28,26.40
2015,06,28,16,29,26.30
2015,06,28,16,30,26.20
2015,06,28,16,31,26.00
2015,06,28,16,32,25.90
2015,06,28,16,33,25.80
2015,06,28,16,34,25.70
2015,06,28,16,35,25.60
2015,06,28,16,36,25.50
2015,06,28,16,37,25.40
2015,06,28,16,38,25.20
2015,06,28,16,39,25.10
2015,06,28,16,40,25.00
2015,06,28,16,41,24.90
2015,06,28,16,42,24.80
2015,06,28,16,43,24.70
2015,06,28,16,44,24.50
2015,06,28,16,45,24.50
2015,06,28,16,46,24.40
2015,06,28,16,47,24.30
2015,06,28,16,48,24.20
2015,06,28,16,49,24.10
2015,06,28,16,50,23.90
2015,06,28,16,51,23.80
2015,06,28,16,52,23.70
2015,06,28,16,53,23.60
2015,06,28,16,54,23.50
2015,06,28,16,55,23.40
2015,06,28,16,56,23.30
2015,06,28,16,57,23.20
2015,06,28,16,58,23.20
2015,06,28,16,59,23.10
2015,06,28,17,00,23.10
2015,06,28,17,01,23.00
2015,06,28,17,02,22.90
2015,06,28,17,03,22.90
2015,06,28,17,04,22.80
2015,06,28,17,05,22.80
2015,06,28,17,06,22.80
2015,06,28,17,07,22.90
2015,06,28,17,08,22.90
2015,06,28,17,09,22.90
2015,06,28,17,10,22.90
2015,06,28,17,11,23.00
2015,06,28,17,12,23.00
2015,06,28,17,13,23.10
2015,06,28,17,14,23.10
2015,06,28,17,15,23.10
2015,06,28,17,16,23.10
2015,06,28,17,17,23.20
2015,06,28,17,18,23.20
2015,06,28,17,19,23.10